Location: Bonn
(50.7330°N, 7.1000°E)
Time: 08:26:57
(UTC+01:00)

Iridium 67 - Visible Passes

Search period start: 06 March 2015 00:00
Search period end: 16 March 2015 00:00
Orbit: 776 x 779 km, 86.4° (Epoch: 05 March)

Date Brightness Start Highest point End Pass type
(mag) Time Alt. Az. Time Alt. Az. Time Alt. Az.
06 Mar 6.6 03:28:57 42° ENE 03:28:57 42° ENE 03:33:04 10° NNE visible
06 Mar 6.5 05:09:26 28° WNW 05:09:26 28° WNW 05:13:33 10° NNW visible
07 Mar 7.4 02:55:39 26° ENE 02:55:39 26° ENE 02:59:09 10° NNE visible
07 Mar 6.0 04:36:07 43° NW 04:36:07 43° NW 04:40:19 10° N visible
08 Mar 8.0 02:22:19 17° ENE 02:22:19 17° ENE 02:24:51 10° NE visible
08 Mar 5.9 04:02:48 55° NNW 04:02:48 55° NNW 04:06:53 10° N visible
08 Mar 7.3 05:43:16 13° WNW 05:43:25 13° WNW 05:45:49 10° NW visible
09 Mar 6.4 03:29:27 46° NNE 03:29:27 46° NNE 03:33:18 10° N visible
09 Mar 6.9 05:09:56 21° WNW 05:09:56 21° WNW 05:13:19 10° NNW visible
10 Mar 7.1 02:56:06 32° NE 02:56:06 32° NE 02:59:31 10° NNE visible
10 Mar 6.5 04:36:34 32° NW 04:36:34 32° NW 04:40:16 10° N visible
11 Mar 7.7 02:22:44 21° ENE 02:22:44 21° ENE 02:25:28 10° NNE visible
11 Mar 6.2 04:03:12 43° NNW 04:03:12 43° NNW 04:06:57 10° N visible
12 Mar 8.2 01:49:20 13° ENE 01:49:20 13° ENE 01:50:53 10° NE visible
12 Mar 6.3 03:29:49 46° N 03:29:49 46° N 03:33:27 10° N visible
12 Mar 7.2 05:10:18 16° WNW 05:10:18 16° WNW 05:12:55 10° NNW visible
13 Mar 6.9 02:56:26 36° NE 02:56:26 36° NE 02:59:47 10° NNE visible
13 Mar 6.8 04:36:54 24° NW 04:36:54 24° NW 04:40:07 10° NNW visible
14 Mar 7.5 02:23:01 25° NE 02:23:01 25° NE 02:25:55 10° NNE visible
14 Mar 6.5 04:03:30 34° NW 04:03:30 34° NW 04:06:56 10° N visible
15 Mar 8.0 01:49:37 17° NE 01:49:37 17° NE 01:51:43 10° NNE visible
15 Mar 6.4 03:30:05 41° NNW 03:30:05 41° NNW 03:33:33 10° N visible
15 Mar 7.5 05:10:33 12° WNW 05:10:33 12° WNW 05:12:04 10° NW visible
